Weather reports worldwide

Advertisment
Bridgefoot, United Kingdom (99137): temperature & dewpoint: 15.10.2017 06:00:00 - 21.10.2017 06:00:00 (BST)Bridgefoot, United Kingdom (99137): precipitation: 15.10.2017 06:00:00 - 21.10.2017 06:00:00 (BST)
Date & Time tt [°C] td [°C] rr [mm]
21.10.2017 06:00:00 - - -
21.10.2017 05:00:00 - - -
21.10.2017 04:00:00 - - -
21.10.2017 03:00:00 - - -
21.10.2017 02:00:00 - - -
21.10.2017 01:00:00 - - -
21.10.2017 00:00:00 - - -
20.10.2017 23:00:00 - - -
20.10.2017 22:00:00 - - -
20.10.2017 21:00:00 - - 0,0
20.10.2017 20:00:00 10,5 7,4 0,0
20.10.2017 19:00:00 10,8 7,3 0,0
20.10.2017 18:00:00 11,5 8,7 0,0
20.10.2017 17:00:00 11,6 9,1 0,0
20.10.2017 16:00:00 12,4 10,2 0,0
20.10.2017 15:00:00 13,0 10,7 0,0
20.10.2017 14:00:00 13,0 11,1 0,0
20.10.2017 13:00:00 13,4 11,6 0,0
20.10.2017 12:00:00 13,5 12,5 0,0
20.10.2017 11:00:00 12,8 12,2 0,0
20.10.2017 10:00:00 12,7 12,2 0,0
20.10.2017 09:00:00 12,0 11,7 0,0
20.10.2017 08:00:00 12,0 11,7 0,2
20.10.2017 07:00:00 12,0 11,6 0,0
20.10.2017 06:00:00 11,9 11,5 0,0
20.10.2017 05:00:00 11,9 11,5 0,0
20.10.2017 04:00:00 11,9 11,4 0,2
20.10.2017 03:00:00 12,0 11,5 1,6
20.10.2017 02:00:00 12,1 11,4 4,2
20.10.2017 01:00:00 12,2 11,3 3,0
20.10.2017 00:00:00 12,8 11,2 0,4
19.10.2017 23:00:00 13,0 11,1 0,0
19.10.2017 22:00:00 12,3 11,6 0,0
19.10.2017 21:00:00 12,2 11,6 0,0
19.10.2017 20:00:00 12,3 11,6 0,4
19.10.2017 19:00:00 12,5 11,5 1,2
19.10.2017 18:00:00 12,7 11,4 0,8
19.10.2017 17:00:00 13,4 11,1 0,4
19.10.2017 16:00:00 14,7 10,4 0,0
19.10.2017 15:00:00 15,7 10,7 0,0
19.10.2017 14:00:00 15,7 11,0 0,0
19.10.2017 13:00:00 15,9 10,3 0,0
19.10.2017 12:00:00 14,8 10,3 0,0
19.10.2017 11:00:00 14,1 10,6 0,0
19.10.2017 10:00:00 13,6 10,4 0,0
19.10.2017 09:00:00 13,3 10,2 0,0
19.10.2017 08:00:00 12,5 10,1 0,0
19.10.2017 07:00:00 12,5 9,9 0,0
19.10.2017 06:00:00 12,8 9,9 0,0
19.10.2017 05:00:00 12,3 10,2 0,0
19.10.2017 04:00:00 11,6 9,4 0,0
19.10.2017 03:00:00 12,4 10,0 0,0
19.10.2017 02:00:00 12,1 9,7 0,0
19.10.2017 01:00:00 12,5 9,8 0,0
19.10.2017 00:00:00 12,7 10,0 0,0
18.10.2017 23:00:00 12,1 9,2 0,0
18.10.2017 22:00:00 12,2 9,1 0,0
18.10.2017 21:00:00 11,4 8,6 0,0
18.10.2017 20:00:00 11,6 8,7 0,0
18.10.2017 19:00:00 12,1 8,3 0,0
18.10.2017 18:00:00 12,5 7,9 0,0
18.10.2017 17:00:00 13,4 8,1 0,0
18.10.2017 16:00:00 13,9 8,1 0,0
18.10.2017 15:00:00 14,9 6,4 0,0
18.10.2017 14:00:00 14,7 7,0 0,0
18.10.2017 13:00:00 13,8 7,8 0,0
18.10.2017 12:00:00 14,2 8,3 0,0
18.10.2017 11:00:00 13,5 11,6 0,0
18.10.2017 10:00:00 10,5 10,2 0,0
18.10.2017 09:00:00 9,1 8,7 0,0
18.10.2017 08:00:00 8,7 8,3 0,0
18.10.2017 07:00:00 8,6 8,2 0,0
18.10.2017 06:00:00 8,8 8,2 0,0
18.10.2017 05:00:00 9,4 8,9 0,0
18.10.2017 04:00:00 9,8 9,3 0,2
18.10.2017 03:00:00 9,9 9,4 0,0
18.10.2017 02:00:00 10,0 9,4 0,0
18.10.2017 01:00:00 10,1 9,6 0,0
18.10.2017 00:00:00 9,9 9,4 0,0
17.10.2017 23:00:00 10,0 9,3 0,4
17.10.2017 22:00:00 10,6 9,8 0,0
17.10.2017 21:00:00 10,8 9,9 0,0
17.10.2017 20:00:00 11,1 9,9 1,2
17.10.2017 19:00:00 11,6 9,9 0,0
17.10.2017 18:00:00 11,6 9,6 0,2
17.10.2017 17:00:00 12,7 9,4 0,0
17.10.2017 16:00:00 12,9 9,1 0,0
17.10.2017 15:00:00 12,8 9,2 0,0
17.10.2017 14:00:00 12,5 9,0 0,0
17.10.2017 13:00:00 11,9 8,3 0,0
17.10.2017 12:00:00 11,8 8,4 0,0
17.10.2017 11:00:00 11,7 8,1 0,0
17.10.2017 10:00:00 11,7 8,1 0,0
17.10.2017 09:00:00 11,5 7,7 0,0
17.10.2017 08:00:00 11,5 7,7 0,0
17.10.2017 07:00:00 11,6 7,8 0,0
17.10.2017 06:00:00 11,8 7,8 0,0
17.10.2017 05:00:00 12,1 7,6 0,0
17.10.2017 04:00:00 12,3 7,4 0,0
17.10.2017 03:00:00 12,9 8,2 0,0
17.10.2017 02:00:00 13,1 9,4 0,2
17.10.2017 01:00:00 13,3 10,1 0,0
17.10.2017 00:00:00 13,4 10,4 0,0
16.10.2017 23:00:00 12,6 10,6 0,2
16.10.2017 22:00:00 12,3 10,9 0,8
16.10.2017 21:00:00 12,2 10,7 0,6
16.10.2017 20:00:00 12,8 9,8 0,0
16.10.2017 19:00:00 14,3 8,9 0,0
16.10.2017 18:00:00 14,9 8,9 0,0
16.10.2017 17:00:00 15,9 8,7 0,0
16.10.2017 16:00:00 17,3 10,1 0,0
16.10.2017 15:00:00 19,6 13,8 0,0
16.10.2017 14:00:00 19,5 14,5 0,0
16.10.2017 13:00:00 19,0 13,8 0,0
16.10.2017 12:00:00 17,3 13,7 0,0
16.10.2017 11:00:00 14,4 13,1 0,2
16.10.2017 10:00:00 13,6 13,0 0,6
16.10.2017 09:00:00 12,7 12,3 0,4
16.10.2017 08:00:00 12,1 11,6 0,0
16.10.2017 07:00:00 11,9 11,2 0,0
16.10.2017 06:00:00 12,6 11,5 0,0
16.10.2017 05:00:00 14,2 12,6 0,0
16.10.2017 04:00:00 14,0 12,7 0,0
16.10.2017 03:00:00 14,0 12,7 0,2
16.10.2017 02:00:00 14,2 12,8 0,0
16.10.2017 01:00:00 14,1 12,9 0,0
16.10.2017 00:00:00 14,4 13,1 0,2
15.10.2017 23:00:00 13,9 13,2 0,0
15.10.2017 22:00:00 13,8 13,2 0,4
15.10.2017 21:00:00 13,7 13,2 1,2
15.10.2017 20:00:00 13,8 13,2 0,6
15.10.2017 19:00:00 14,0 13,2 0,2
15.10.2017 18:00:00 14,1 13,4 0,4
15.10.2017 17:00:00 14,2 13,4 0,6
15.10.2017 16:00:00 14,7 13,0 0,0
15.10.2017 15:00:00 14,6 12,8 0,0
15.10.2017 14:00:00 14,8 12,4 0,0
15.10.2017 13:00:00 15,2 12,1 0,0
15.10.2017 12:00:00 14,9 12,2 0,0
15.10.2017 11:00:00 14,6 11,8 0,0
15.10.2017 10:00:00 14,5 12,0 0,0
15.10.2017 09:00:00 14,2 12,1 0,0
15.10.2017 08:00:00 14,7 12,2 0,0
15.10.2017 07:00:00 14,6 12,2 0,0
15.10.2017 06:00:00 14,8 12,4 0,0

tt = temperature
td = dewpoint
rr = precipitation

Next stations